| Date | Time | Temp. (oF) | Dew Point (oF) | Rel. Hum. (%) | Press. (in.) | Wind Dir. | Wind Speed (mph) | Hourly Rainfall (in.) |
|
|---|---|---|---|---|---|---|---|---|---|
| 1 | 01/06 | 00:00 | 34 | 33 | 100 | 30.05 | ENE | 7 | 0.00 |
| 2 | 01/05 | 23:00 | 34 | 33 | 100 | 30.07 | ENE | 5 | 0.01 |
| 3 | 01/05 | 22:00 | 35 | 35 | 100 | 30.10 | E | 7 | 0.03 |
| 4 | 01/05 | 21:00 | 35 | 35 | 100 | 30.12 | NE | 2 | 0.05 |
| 5 | 01/05 | 20:00 | 35 | 35 | 100 | 30.13 | E | 3 | 0.01 |
| 6 | 01/05 | 19:00 | 35 | 35 | 100 | 30.13 | NE | 5 | 0.02 |
| 7 | 01/05 | 18:00 | 36 | 36 | 100 | 30.13 | E | 1 | 0.02 |
| 8 | 01/05 | 17:00 | 36 | 36 | 100 | 30.14 | E | 4 | 0.01 |
| 9 | 01/05 | 16:00 | 37 | 36 | 100 | 30.12 | ESE | 1 | 0.01 |
| 10 | 01/05 | 15:00 | 37 | 36 | 100 | 30.11 | N | 4 | 0.01 |
| 11 | 01/05 | 14:00 | 37 | 36 | 100 | 30.13 | NNE | 7 | 0.01 |
| 12 | 01/05 | 13:00 | 37 | 36 | 100 | 30.13 | ENE | 10 | 0.00 |
| 13 | 01/05 | 12:00 | 38 | 37 | 100 | 30.14 | NE | 7 | 0.00 |
| 14 | 01/05 | 11:00 | 38 | 37 | 100 | 30.17 | NE | 3 | 0.00 |
| 15 | 01/05 | 10:00 | 40 | 40 | 100 | 30.17 | NE | 13 | 0.00 |
| 16 | 01/05 | 09:00 | 40 | 40 | 100 | 30.15 | NNE | 6 | 0.04 |
| 17 | 01/05 | 08:00 | 41 | 41 | 100 | 30.14 | ENE | 3 | 0.06 |
| 18 | 01/05 | 07:00 | 41 | 41 | 100 | 30.13 | N | 3 | 0.02 |
| 19 | 01/05 | 06:00 | 41 | 41 | 100 | 30.11 | NE | 4 | 0.00 |
| 20 | miss | miss | miss | miss | miss | miss | miss | miss | |
| 21 | 01/05 | 05:22 | 41 | 41 | 100 | 30.12 | NE | 3 | 0.02 |
| 22 | miss | miss | miss | miss | miss | miss | miss | miss | |
| 23 | 01/05 | 05:20 | 41 | 41 | 100 | 30.12 | ENE | 3 | 0.01 |
| 24 | miss | miss | miss | miss | miss | miss | miss | miss | |
| 25 | 01/05 | 05:18 | 41 | 41 | 100 | 30.12 | SE | 1 | 0.01 |
| 26 | miss | miss | miss | miss | miss | miss | miss | miss | |
| 27 | 01/05 | 05:18 | 41 | 41 | 100 | 30.12 | SE | 1 | 0.01 |
| 28 | miss | miss | miss | miss | miss | miss | miss | miss | |
| 29 | 01/05 | 05:18 | 41 | 41 | 100 | 30.12 | SE | 1 | 0.01 |
| 30 | miss | miss | miss | miss | miss | miss | miss | miss | |
| 31 | 01/05 | 05:18 | 41 | 41 | 100 | 30.12 | SE | 1 | 0.01 |
| 32 | miss | miss | miss | miss | miss | miss | miss | miss | |
| 33 | 01/05 | 05:18 | 41 | 41 | 100 | 30.12 | SE | 1 | 0.01 |
| 34 | miss | miss | miss | miss | miss | miss | miss | miss | |
| 35 | 01/05 | 05:18 | 41 | 41 | 100 | 30.12 | SE | 1 | 0.01 |
| 36 | miss | miss | miss | miss | miss | miss | miss | miss | |
| 37 | 01/05 | 05:18 | 41 | 41 | 100 | 30.12 | SE | 1 | 0.01 |
| 38 | miss | miss | miss | miss | miss | miss | miss | miss | |
| 39 | 01/05 | 05:18 | 41 | 41 | 100 | 30.12 | SE | 1 | 0.01 |
| 40 | miss | miss | miss | miss | miss | miss | miss | miss | |
| 41 | 01/05 | 05:18 | 41 | 41 | 100 | 30.12 | SE | 1 | 0.01 |
| 42 | miss | miss | miss | miss | miss | miss | miss | miss | |
| 43 | 01/05 | 05:18 | 41 | 41 | 100 | 30.12 | SE | 1 | 0.01 |
| 44 | 01/05 | 05:00 | 41 | 41 | 100 | 30.12 | NE | 6 | 0.04 |
| 45 | 01/05 | 04:00 | 42 | 41 | 100 | 30.15 | NNE | 8 | 0.06 |
| 46 | 01/05 | 03:00 | 43 | 42 | 100 | 30.17 | N | 3 | 0.08 |
| 47 | 01/05 | 02:00 | 44 | 44 | 100 | 30.17 | NNE | 3 | 0.00 |
| 48 | 01/05 | 01:00 | 44 | 44 | 100 | 30.19 | N | 4 | 0.01 |
| 49 | 01/05 | 00:00 | 45 | 44 | 99 | 30.22 | NNW | 1 | -0.53 |
| 50 | 01/04 | 23:00 | 45 | 44 | 97 | 30.22 | SW | 0 | 0.00 |
| 51 | 01/04 | 22:00 | 46 | 44 | 96 | 30.24 | S | 0 | 0.00 |
| 52 | 01/04 | 21:00 | 46 | 44 | 95 | 30.24 | ENE | 0 | 0.00 |
| 53 | 01/04 | 20:00 | 46 | 43 | 92 | 30.25 | NNE | 0 | 0.00 |
| 54 | 01/04 | 19:00 | 47 | 44 | 91 | 30.24 | N | 2 | 0.00 |
| 55 | 01/04 | 18:00 | 47 | 44 | 90 | 30.24 | NNW | 0 | 0.00 |
| 56 | 01/04 | 17:00 | 48 | 44 | 88 | 30.22 | N | 2 | 0.00 |
| 57 | 01/04 | 16:00 | 49 | 45 | 87 | 30.22 | NNW | 5 | 0.00 |
| 58 | 01/04 | 15:00 | 49 | 45 | 87 | 30.21 | NNW | 4 | 0.00 |
| 59 | 01/04 | 14:00 | 49 | 45 | 89 | 30.21 | N | 6 | 0.00 |
| 60 | 01/04 | 13:00 | 49 | 45 | 89 | 30.21 | N | 7 | 0.00 |
| 61 | 01/04 | 12:00 | 50 | 47 | 91 | 30.21 | NNE | 8 | 0.00 |
| 62 | 01/04 | 11:00 | 48 | 47 | 99 | 30.22 | NNE | 10 | 0.00 |
| 63 | 01/04 | 10:00 | 48 | 48 | 100 | 30.22 | WNW | 2 | 0.00 |
| 64 | 01/04 | 09:00 | 50 | 50 | 100 | 30.19 | N | 6 | 0.00 |
| 65 | 01/04 | 08:00 | 51 | 50 | 100 | 30.14 | NNW | 0 | 0.00 |
| 66 | 01/04 | 07:00 | 50 | 50 | 100 | 30.09 | N | 0 | 0.00 |
| 67 | 01/04 | 06:00 | 50 | 50 | 100 | 30.06 | ENE | 2 | 0.00 |
| 68 | 01/04 | 05:00 | 50 | 50 | 100 | 30.05 | N | 0 | 0.00 |
| 69 | 01/04 | 04:00 | 51 | 50 | 100 | 30.05 | NW | 0 | 0.00 |
| 70 | 01/04 | 03:00 | 51 | 50 | 100 | 30.05 | NW | 0 | 0.00 |
| 71 | 01/04 | 02:00 | 51 | 50 | 100 | 30.05 | WNW | 2 | 0.00 |
| 72 | 01/04 | 01:00 | 50 | 50 | 100 | 30.05 | S | 0 | 0.00 |
| 73 | 01/04 | 00:00 | 49 | 49 | 100 | 30.07 | WNW | 0 | 0.00 |